User: anonymous   Login
Location: Owatonna
(44.0840°N, 93.2260°W)
Time: 17:38:31
(UTC-05:00)
Language:

Cosmos 839 Rocket - Orbit

View from above orbital plane
View from above orbital plane
View from above satellite
View from above satellite

Ground track
Ground track

The orbit data is extracted from the following two-line orbital elements,

1  9013U 76067B   17116.50625361 -.00000049 +00000-0 +17781-4 0  9995
2  9013 065.8644 106.7540 0705433 093.4068 036.8415 12.35324182840025
Epoch (UTC): 26 April 2017 12:09:00
Eccentricity: 0.0705433
inclination: 65.8644°
perigee height: 969 km
apogee height: 2084 km
right ascension of ascending node: 106.7540°
argument of perigee: 93.4068°
revolutions per day: 12.35324182
mean anomaly at epoch: 36.8415°
orbit number at epoch: 84002

The dashed part of the orbit path shows where the satellite is in the earth's shadow,  

DLR